Simultaneous Nadir Overpasses (SNOs) Predictions

Prediction of SNOs between NOAA-20 and METOP-B Satellite Orbit:

Table of predicted SNOs for the next 14.0 days since TLE Epoch: 5/15/2022
Index Date (NOAA-20) Time (NOAA-20) Lat,Lon (NOAA-20) SZA (NOAA-20 ) Date (METOP-B) Time (METOP-B) Lat,Lon (METOP-B) SZA (METOP-B ) Distance(km) Time Diff (sec)
1 05/28/2022 15:26:56 73.47, -61.29 52.08 05/28/2022 15:28:03 73.40, -58.79 51.89 79.75 67
2 05/28/2022 16:17:38 -73.36, 106.26 128.04 05/28/2022 16:18:47 -73.30, 108.32 128.21 66.05 69
3 05/28/2022 17:08:20 73.17, -86.01 51.75 05/28/2022 17:09:31 73.07, -84.85 51.58 39.01 71
4 05/28/2022 17:59:02 -73.07, 81.53 128.38 05/28/2022 18:00:14 -73.03, 82.38 128.47 27.82 72
5 05/28/2022 18:49:44 72.87,-110.74 51.41 05/28/2022 18:50:57 72.85,-110.67 51.37 3.84 73
6 05/28/2022 19:40:27 -72.82, 56.68 128.65 05/28/2022 19:41:39 -72.85, 56.67 128.64 3.26 72
7 05/28/2022 20:31:13 72.83,-136.02 51.35 05/28/2022 20:32:19 72.82,-136.06 51.33 1.21 66
8 05/28/2022 21:21:57 -72.83, 31.29 128.66 05/28/2022 21:23:01 -72.83, 31.28 128.67 0.54 64
9 05/28/2022 22:12:43 72.84,-161.41 51.35 05/28/2022 22:13:40 72.85,-161.34 51.35 2.87 57
10 05/28/2022 23:03:27 -72.83, 5.91 128.66 05/28/2022 23:04:23 -72.80, 5.89 128.70 3.48 56
11 05/28/2022 23:54:13 72.84, 173.20 51.34 05/28/2022 23:55:02 72.83, 173.27 51.31 2.78 49
12 05/29/2022 00:44:57 -72.84, -19.48 128.67 05/29/2022 00:45:44 -72.83, -19.40 128.69 2.95 47
13 05/29/2022 01:35:42 72.80, 147.92 51.28 05/29/2022 01:36:24 72.80, 147.88 51.28 1.50 42
14 05/29/2022 02:26:26 -72.80, -44.76 128.73 05/29/2022 02:27:06 -72.81, -44.79 128.72 1.43 40
15 05/29/2022 03:17:12 72.80, 122.53 51.28 05/29/2022 03:17:46 72.78, 122.49 51.25 3.14 34



Historial Predications of SNOs between NOAA-20 and METOP-B
